Weather History for Oxford, NC

Change the Weather History Date:

Wednesday, April 10, 2013

  Actual Average (KTDF) Record (KTDF)
Temperature  
Mean Temperature 73 °F -  
Max Temperature 85 °F 67 °F 95 °F (2001)
Min Temperature 61 °F 40 °F 24 °F (1985)
Cooling Degree Days 8    
Growing Degree Days 23 (Base 50)    
Moisture  
Dew Point 55 °F    
Average Humidity 54    
Maximum Humidity 80    
Minimum Humidity 31    
Precipitation  
Precipitation 0.00 in - - ()
Sea Level Pressure  
Sea Level Pressure 30.02 in    
Wind  
Wind Speed 9 mph (SSW)    
Max Wind Speed 18 mph    
Max Gust Speed 22 mph    
Visibility 10 miles    
Events      
Averages and records for this station are not official NWS values.
T = Trace of Precipitation, MM = Missing Value Source: NWS Daily Summary

Daily Weather History Graph

Daily Weather History Graph

Search for Another Location

Airport:

Trip Planner

Search our weather history database for the weather conditions in past years. The results will help you decide how hot, cold, wet, or windy it might be!

Date:

Astronomy

Apr. 10, 2013 Rise Set
Actual Time 6:47 AM EDT 7:44 PM EDT
Civil Twilight 6:20 AM EDT 8:10 PM EDT
Nautical Twilight 5:49 AM EDT 8:41 PM EDT
Astronomical Twilight 5:17 AM EDT 9:14 PM EDT
Moon 6:43 AM EDT (4/10) 8:16 PM EDT (4/10)
Length of Visible Light 13h 49m
Length of Day
12h 56m
New Moon, 0% of the Moon is Illuminated
Apr 10
New Moon
Apr 18
First Quarter
Apr 25
Full
May 2
Last Quarter
May 9
New

Hourly Weather History & Observations

Time (EDT) Temp. Heat Index Dew Point Humidity Pressure Visibility Wind Dir Wind Speed Gust Speed Precip Events Conditions
12:15 AM 67.8 °F - 54.1 °F 62% 30.07 in 10.0 mi SSW 8.1 mph - N/A   Clear
12:35 AM 68.0 °F - 54.1 °F 61% 30.07 in 10.0 mi SSW 9.2 mph - N/A   Clear
12:55 AM 67.5 °F - 54.1 °F 62% 30.06 in 10.0 mi SSW 8.1 mph - N/A   Clear
1:15 AM 67.5 °F - 54.1 °F 62% 30.06 in 10.0 mi SSW 9.2 mph - N/A   Clear
1:35 AM 67.1 °F - 54.1 °F 63% 30.06 in 10.0 mi SSW 9.2 mph - N/A   Clear
1:55 AM 66.9 °F - 54.1 °F 63% 30.05 in 10.0 mi SSW 9.2 mph - N/A   Clear
2:15 AM 66.2 °F - 54.1 °F 65% 30.05 in 10.0 mi South 9.2 mph - N/A   Clear
2:35 AM 65.8 °F - 54.0 °F 65% 30.05 in 10.0 mi SSW 9.2 mph - N/A   Clear
2:55 AM 65.1 °F - 54.1 °F 68% 30.05 in 10.0 mi SSW 8.1 mph - N/A   Clear
3:15 AM 65.1 °F - 54.1 °F 68% 30.05 in 10.0 mi SSW 8.1 mph - N/A   Clear
3:35 AM 64.6 °F - 54.3 °F 69% 30.05 in 10.0 mi SSW 8.1 mph - N/A   Clear
3:55 AM 63.9 °F - 54.3 °F 71% 30.05 in 10.0 mi SSW 6.9 mph - N/A   Clear
4:15 AM 63.9 °F - 54.5 °F 72% 30.05 in 10.0 mi SSW 8.1 mph - N/A   Clear
4:35 AM 63.5 °F - 54.5 °F 72% 30.05 in 10.0 mi SSW 9.2 mph - N/A   Clear
4:55 AM 63.0 °F - 54.5 °F 74% 30.05 in 10.0 mi SSW 8.1 mph - N/A   Clear
5:15 AM 62.8 °F - 54.9 °F 75% 30.06 in 10.0 mi SSW 8.1 mph - N/A   Clear
5:35 AM 62.8 °F - 55.0 °F 76% 30.06 in 10.0 mi SSW 10.4 mph - N/A   Clear
5:55 AM 62.8 °F - 54.9 °F 75% 30.06 in 10.0 mi SSW 9.2 mph - N/A   Clear
6:15 AM 62.2 °F - 54.9 °F 77% 30.06 in 10.0 mi SSW 10.4 mph - N/A   Clear
6:35 AM 61.7 °F - 54.9 °F 78% 30.06 in 10.0 mi SSW 10.4 mph - N/A   Clear
6:55 AM 61.3 °F - 55.2 °F 80% 30.07 in 10.0 mi SSW 9.2 mph - N/A   Clear
7:15 AM 61.7 °F - 55.4 °F 80% 30.07 in 10.0 mi SSW 9.2 mph - N/A   Clear
7:35 AM 61.7 °F - 55.4 °F 80% 30.07 in 10.0 mi SSW 10.4 mph - N/A   Clear
7:55 AM 62.8 °F - 56.3 °F 79% 30.07 in 10.0 mi SW 11.5 mph - N/A   Clear
8:15 AM 64.4 °F - 56.5 °F 75% 30.08 in 10.0 mi SW 12.7 mph 17.3 mph N/A   Clear
8:35 AM 66.0 °F - 56.8 °F 72% 30.08 in 10.0 mi SW 11.5 mph - N/A   Clear
8:55 AM 67.6 °F - 57.2 °F 69% 30.08 in 10.0 mi SW 9.2 mph - N/A   Clear
9:15 AM 68.9 °F - 57.4 °F 67% 30.09 in 10.0 mi SW 10.4 mph - N/A   Clear
9:35 AM 70.0 °F - 57.6 °F 65% 30.09 in 10.0 mi SSW 11.5 mph - N/A   Clear
9:55 AM 71.4 °F - 57.9 °F 62% 30.09 in 10.0 mi SW 8.1 mph - N/A   Clear
10:15 AM 72.5 °F - 57.9 °F 60% 30.09 in 10.0 mi SW 8.1 mph - N/A   Clear
10:35 AM 73.4 °F - 58.3 °F 59% 30.09 in 10.0 mi SW 10.4 mph - N/A   Clear
10:55 AM 74.7 °F - 58.5 °F 57% 30.08 in 10.0 mi SW 9.2 mph - N/A   Clear
11:15 AM 76.5 °F - 58.1 °F 53% 30.09 in 10.0 mi SW 5.8 mph - N/A   Clear
11:35 AM 77.5 °F - 57.7 °F 50% 30.08 in 10.0 mi SSW 4.6 mph - N/A   Clear
11:55 AM 78.8 °F - 58.8 °F 50% 30.07 in 10.0 mi SSW 8.1 mph - N/A   Clear
12:15 PM 79.7 °F - 57.6 °F 47% 30.07 in 10.0 mi WSW 8.1 mph - N/A   Clear
12:35 PM 80.8 °F 80.9 °F 57.0 °F 44% 30.06 in 10.0 mi SSW 5.8 mph - N/A   Clear
12:55 PM 81.7 °F 81.4 °F 56.7 °F 42% 30.06 in 10.0 mi SSW 9.2 mph - N/A   Clear
1:15 PM 81.9 °F 81.2 °F 54.5 °F 39% 30.05 in 10.0 mi SSW 8.1 mph - N/A   Clear
1:35 PM 83.1 °F 81.9 °F 53.8 °F 36% 30.05 in 10.0 mi WSW 8.1 mph - N/A   Clear
1:55 PM 82.9 °F 81.9 °F 54.1 °F 37% 30.04 in 10.0 mi WSW 9.2 mph - N/A   Clear
2:15 PM 83.7 °F 82.7 °F 55.2 °F 38% 30.03 in 10.0 mi SW 10.4 mph - N/A   Clear
2:35 PM 83.7 °F 82.5 °F 54.5 °F 37% 30.02 in 10.0 mi South 9.2 mph 19.6 mph N/A   Clear
2:55 PM 84.7 °F 83.1 °F 53.8 °F 34% 30.01 in 10.0 mi SSW 13.8 mph 19.6 mph N/A   Clear
3:15 PM 84.6 °F - 52.5 °F 33% 29.99 in 10.0 mi South 11.5 mph 18.4 mph N/A   Clear
3:35 PM 85.1 °F - 52.0 °F 32% 29.99 in 10.0 mi South 15.0 mph 21.9 mph N/A   Clear
3:55 PM 85.3 °F - 51.6 °F 31% 29.98 in 10.0 mi South 13.8 mph 18.4 mph N/A   Clear
4:15 PM 85.1 °F - 52.5 °F 32% 29.97 in 10.0 mi SW 15.0 mph 19.6 mph N/A   Clear
4:35 PM 84.9 °F - 51.8 °F 32% 29.97 in 10.0 mi WSW 15.0 mph 19.6 mph N/A   Clear
4:55 PM 85.1 °F - 51.6 °F 31% 29.96 in 10.0 mi SSW 18.4 mph 21.9 mph N/A   Clear
5:15 PM 84.9 °F - 51.6 °F 32% 29.95 in 10.0 mi South 13.8 mph 19.6 mph N/A   Clear
5:35 PM 84.9 °F - 51.1 °F 31% 29.95 in 10.0 mi SSW 15.0 mph 20.7 mph N/A   Clear
5:55 PM 84.2 °F - 50.7 °F 31% 29.95 in 10.0 mi SSW 13.8 mph 18.4 mph N/A   Clear
6:15 PM 83.5 °F - 51.3 °F 33% 29.95 in 10.0 mi SSW 15.0 mph 19.6 mph N/A   Clear
6:35 PM 82.8 °F - 51.8 °F 34% 29.95 in 10.0 mi SW 11.5 mph 19.6 mph N/A   Clear
6:55 PM 81.7 °F - 52.3 °F 36% 29.94 in 10.0 mi SSW 8.1 mph 16.1 mph N/A   Clear
7:15 PM 81.1 °F - 51.6 °F 36% 29.94 in 10.0 mi SSW 9.2 mph - N/A   Clear
7:35 PM 79.5 °F - 51.8 °F 38% 29.94 in 10.0 mi SSW 9.2 mph - N/A   Clear
7:55 PM 78.4 °F - 52.0 °F 40% 29.94 in 10.0 mi SSW 8.1 mph - N/A   Clear
8:15 PM 77.4 °F - 52.7 °F 42% 29.94 in 10.0 mi SSW 8.1 mph - N/A   Clear
8:35 PM 76.1 °F - 53.1 °F 45% 29.94 in 10.0 mi SSW 6.9 mph - N/A   Clear
8:55 PM 73.6 °F - 53.8 °F 50% 29.94 in 10.0 mi SSW 6.9 mph - N/A   Clear
9:15 PM 74.5 °F - 53.8 °F 48% 29.95 in 10.0 mi SSW 10.4 mph - N/A   Clear
9:35 PM 75.4 °F - 54.5 °F 48% 29.95 in 10.0 mi SSW 10.4 mph - N/A   Clear
9:55 PM 74.5 °F - 55.0 °F 51% 29.95 in 10.0 mi SSW 9.2 mph - N/A   Clear
10:35 PM 73.6 °F - 55.9 °F 54% 29.95 in 10.0 mi SSW 11.5 mph - N/A   Clear
10:55 PM 73.4 °F - 56.1 °F 55% 29.95 in 10.0 mi SSW 12.7 mph - N/A   Clear
11:15 PM 72.3 °F - 56.3 °F 57% 29.95 in 10.0 mi SSW 10.4 mph - N/A   Clear
11:35 PM 72.0 °F - 56.3 °F 58% 29.96 in 10.0 mi SSW 9.2 mph - N/A   Clear
11:55 PM 70.9 °F - 56.5 °F 60% 29.96 in 10.0 mi SSW 8.1 mph - N/A   Clear